EHI
0 0 0 0 0 0 0 0 0 0 0 0 0 3 6 6 4 4 6 8 7 7 10 17 22 26 31 33 32 32 32 31 29 26 26 27 25 23 20 19 19 19 16 15
0 0 0 0 0 0 0 0 0 0 0 0 0 2 6 7 6 7 8 8 8 9 13 18 22 25 32 35 33 32 31 29 27 25 25 26 25 21 19 18 19 18 16 16
0 0 0 0 0 0 0 0 0 0 0 0 0 2 7 9 9 9 8 8 10 12 15 17 19 22 28 32 31 29 29 27 25 23 22 22 21 20 20 19 18 17 16 16
0 0 0 0 0 0 0 0 0 0 0 0 0 2 7 10 10 8 7 7 10 13 14 14 15 17 21 24 26 28 29 28 24 20 18 17 17 19 20 19 18 17 16 15
0 0 0 0 0 0 0 0 0 0 0 0 0 2 6 9 8 6 5 6 9 12 13 12 13 14 15 19 23 28 30 30 27 21 18 17 18 19 20 19 17 16 15 13
0 0 0 0 0 0 0 0 0 0 0 0 0 3 8 9 7 6 6 7 9 11 11 11 13 14 14 16 20 26 30 31 29 25 22 21 20 19 17 16 16 15 13 12
0 0 0 0 0 0 0 0 0 0 0 0 0 4 9 10 8 8 8 9 9 9 9 11 15 15 14 14 17 23 27 29 28 26 24 23 21 16 13 13 13 13 12 12
0 0 0 0 0 0 0 0 0 0 0 0 1 5 8 9 8 9 9 10 10 9 9 11 15 15 14 14 17 20 24 26 24 23 23 21 17 11 9 9 9 9 9 8
0 0 0 0 0 0 0 0 0 0 0 0 2 5 6 6 6 8 10 11 10 10 9 11 14 16 15 15 17 18 20 22 22 20 18 15 12 8 6 6 6 5 5 3
0 0 0 0 0 0 0 0 0 0 0 0 2 5 5 5 5 7 10 11 10 10 10 10 13 17 18 16 16 16 17 18 19 18 15 12 10 8 6 5 5 4 3 2
0 0 0 0 0 1 1 1 0 0 0 0 1 3 5 5 4 5 7 8 7 10 13 13 14 18 19 16 14 13 13 14 14 15 14 12 10 8 6 6 6 5 4 3
0 0 0 0 1 2 2 1 0 0 0 1 1 3 5 5 4 4 6 7 7 11 15 16 17 19 18 14 12 11 10 10 10 10 11 11 9 7 5 5 6 5 4 3
0 0 0 1 2 2 1 1 0 0 1 2 2 4 6 5 4 6 8 9 10 13 17 17 18 19 17 13 10 8 8 8 7 6 6 7 6 5 4 4 5 4 2 1
0 0 0 1 1 1 0 0 0 0 1 1 2 4 5 5 6 8 10 11 11 14 18 19 18 17 14 10 8 7 7 6 4 3 4 5 7 8 7 6 4 3 2 1
1 0 0 0 0 0 0 0 0 0 0 0 1 3 5 6 8 10 12 12 12 14 17 17 17 15 11 8 7 7 6 4 4 4 4 6 8 10 10 7 5 4 2 1
1 1 0 0 0 0 0 0 0 0 0 0 1 3 7 8 9 11 13 13 13 13 14 15 15 13 11 9 7 6 4 4 4 5 5 6 7 9 9 7 5 4 3 2
2 2 1 0 0 0 0 1 1 0 0 0 2 4 7 9 10 14 17 17 15 14 14 14 15 14 12 10 8 6 3 3 5 6 6 5 5 6 6 6 5 4 3 4
5 5 2 0 0 0 0 1 1 0 0 1 4 6 8 9 11 16 20 20 18 17 17 16 16 16 14 11 8 5 3 3 4 5 4 3 4 4 4 4 4 4 5 5
8 7 4 1 1 0 0 1 1 0 1 3 6 10 11 11 12 16 20 21 20 19 20 19 17 16 16 13 9 6 4 4 3 3 2 2 3 2 2 3 5 7 7 7
6 6 4 1 1 0 0 0 0 0 2 5 9 13 16 15 14 18 22 22 21 21 22 20 16 16 17 15 11 9 6 5 4 2 2 3 3 2 2 4 6 7 8 8
3 3 2 0 0 0 1 1 2 4 6 7 9 15 20 21 20 25 26 24 23 24 23 19 14 14 16 16 14 10 7 6 5 4 5 6 6 4 4 6 7 6 7 7
1 1 1 0 1 3 4 5 7 12 12 9 10 16 22 25 26 27 26 24 24 23 21 16 12 12 14 17 14 10 7 6 6 7 8 8 8 6 5 6 6 5 4 5
1 1 1 1 3 5 7 8 10 13 14 11 13 18 22 25 26 24 22 21 19 18 16 14 12 12 13 14 13 10 8 6 6 7 8 8 8 7 6 7 6 4 3 4
1 1 2 2 2 3 5 6 7 9 9 11 15 19 19 20 21 19 17 15 14 13 12 12 12 12 12 12 12 11 8 7 6 6 7 7 6 6 6 6 4 3 2 2
1 1 1 2 1 1 1 2 3 4 6 10 15 17 16 15 15 16 14 11 9 9 9 10 11 11 11 11 11 11 9 8 6 6 6 6 5 4 4 3 2 1 1 1
1 0 0 1 1 1 0 0 1 3 5 8 13 14 13 11 12 14 14 11 7 6 7 9 10 10 10 10 12 12 10 7 6 6 6 6 4 3 2 1 0 0 0 0
Wind_Speed
12 12 12 12 11 9 8 9 10 8 7 6 6 5 4 5 5 4 4 4 4 5 7 7 7 7 8 7 6 5 4 3 2 2 2 2 2 1 1 2 2 2 1 1
12 15 14 12 10 10 11 12 11 7 6 6 6 6 5 6 6 5 5 5 5 6 7 7 7 7 8 7 6 5 4 3 3 2 2 2 2 1 1 1 1 1 1 1
16 11 11 12 12 12 12 11 9 7 7 7 7 7 6 6 6 6 5 5 5 7 7 7 6 5 6 6 5 4 4 3 2 2 2 1 1 1 1 1 1 0 1 2
14 13 11 11 11 10 10 9 8 8 8 7 8 6 5 4 7 7 6 6 5 6 8 7 6 5 5 5 6 5 4 3 2 2 2 2 2 1 1 1 1 1 2 2
12 11 12 11 10 10 9 8 8 10 10 10 8 6 3 5 5 5 6 6 5 6 6 7 6 5 5 4 5 5 4 3 2 2 2 2 1 1 1 1 1 1 1 2
15 12 11 10 9 9 8 9 10 10 9 10 9 6 1 3 4 5 6 7 6 6 6 6 6 6 4 4 4 5 5 3 2 2 2 2 1 1 1 1 2 2 1 2
16 15 12 10 10 9 9 8 6 6 7 8 6 4 3 4 5 5 7 8 8 7 6 6 6 5 4 4 4 4 4 3 2 2 1 1 1 1 1 2 1 1 1 1
12 11 11 10 10 8 10 10 7 6 6 6 4 2 4 8 7 6 6 8 8 8 7 6 6 5 4 4 4 4 3 3 2 2 1 0 0 1 1 1 1 1 1 0
9 9 9 9 8 9 9 8 7 7 9 8 2 3 5 7 8 7 7 7 7 6 6 6 6 6 5 4 4 3 3 2 2 2 2 1 1 1 1 1 1 1 1 0
10 9 8 8 7 9 9 6 4 6 6 7 4 4 5 8 7 6 6 6 5 6 6 6 6 5 5 5 4 3 3 2 2 1 2 2 1 0 0 0 1 1 1 1
10 10 9 9 9 9 8 8 6 6 6 6 5 0 4 5 4 6 6 6 5 6 6 6 6 6 6 5 4 3 3 3 2 2 2 2 1 1 1 0 1 1 1 1
7 7 9 10 9 8 9 8 7 6 6 6 5 1 4 7 6 6 6 6 6 6 6 6 7 6 5 4 4 3 3 2 2 2 2 2 1 1 1 1 1 1 1 1
4 5 8 9 8 6 8 8 8 7 6 5 6 3 6 7 7 6 7 7 6 6 7 7 6 6 5 4 3 3 3 2 2 3 2 2 2 1 1 1 1 1 1 1
5 6 7 8 7 7 8 10 7 7 6 6 5 4 6 6 7 7 7 7 7 7 7 7 6 5 4 4 3 3 2 2 2 2 2 2 2 1 1 1 1 0 1 1
5 7 8 10 12 10 10 9 7 7 7 6 5 5 6 6 7 7 7 7 7 7 7 6 5 4 4 3 3 2 2 2 1 2 2 2 1 2 1 1 1 1 1 1
3 6 8 12 13 11 9 8 7 6 7 6 5 4 6 7 8 7 7 7 7 6 6 6 5 5 4 3 2 2 1 1 1 1 2 2 1 1 1 1 1 1 1 1
5 6 9 10 10 11 8 5 6 5 4 3 3 3 6 7 7 7 7 7 6 6 5 5 5 4 3 2 2 1 1 1 1 0 1 1 1 1 1 1 1 1 0 1
6 7 7 9 8 11 4 1 2 3 1 0 3 4 6 7 7 7 7 6 5 5 5 5 4 4 3 2 2 1 1 1 0 0 0 1 1 1 1 1 1 1 1 1
6 6 7 7 9 8 4 3 3 4 2 1 3 4 6 7 9 6 5 6 5 5 5 5 5 4 3 2 2 1 1 1 0 0 1 1 0 0 1 1 1 1 1 1
7 6 7 8 8 7 3 4 4 2 3 2 3 5 5 5 4 4 5 5 5 5 5 5 4 4 3 2 1 1 1 1 1 1 1 1 1 1 1 1 1 1 1 2
7 7 8 9 8 5 3 3 2 3 1 4 5 6 5 3 2 6 6 5 5 5 5 5 4 3 3 2 1 1 0 1 2 1 1 1 1 1 1 0 1 1 2 2
5 4 5 6 8 4 5 3 3 4 4 5 5 5 5 5 6 8 7 5 5 5 5 4 4 3 3 2 2 1 0 1 1 1 2 1 1 2 1 0 1 2 2 2
3 1 1 1 0 4 5 6 6 5 4 4 4 5 5 5 6 7 6 5 4 4 4 4 3 3 3 2 2 1 0 1 1 1 1 1 2 2 1 1 2 2 2 2
1 1 1 1 3 4 5 5 5 4 4 4 4 4 5 5 6 6 5 4 3 3 3 3 3 3 2 2 2 1 1 1 1 1 2 2 2 1 1 1 1 1 1 2
3 3 2 1 2 3 4 3 3 3 4 4 3 3 4 5 5 5 4 4 3 2 2 2 3 3 3 2 2 1 1 1 1 1 1 3 2 1 0 0 1 1 1 1
2 1 1 1 2 1 2 2 2 3 3 3 3 3 3 4 5 5 4 4 3 3 2 2 2 2 2 2 1 1 0 1 1 2 2 2 2 1 2 1 0 2 1 2
Wind_Direction
219 229 235 236 240 254 261 257 257 260 256 254 253 250 222 185 180 173 150 150 155 134 133 137 139 135 132 130 129 128 131 135 147 158 168 162 162 164 157 150 124 137 168 189
226 230 238 245 243 247 250 262 261 262 252 252 250 251 226 196 181 172 164 152 151 139 139 136 141 142 139 138 139 138 142 147 163 162 160 155 150 171 147 107 131 156 186 219
232 235 236 246 245 243 249 255 262 261 259 247 254 254 239 190 169 151 154 151 141 146 146 143 141 140 141 141 143 143 143 146 151 135 137 136 130 130 142 152 142 168 225 221
239 240 240 240 248 251 256 257 267 262 259 259 247 260 213 187 162 160 161 152 149 148 145 145 142 136 132 142 141 133 130 133 127 138 159 169 170 179 184 199 175 191 235 230
244 237 244 246 251 254 262 268 266 267 266 269 252 256 223 171 164 169 156 147 147 135 133 138 139 137 135 136 140 133 125 130 140 162 154 177 180 173 180 185 200 210 237 237
256 248 240 252 253 249 259 262 261 261 267 261 254 245 230 165 163 174 153 146 142 135 134 131 130 125 121 119 119 125 127 135 147 155 160 176 178 174 227 252 243 232 226 239
246 241 232 228 242 238 245 251 259 253 246 252 249 227 159 140 147 148 142 141 136 133 132 133 131 125 114 106 93 102 128 134 129 134 155 187 200 213 229 253 267 258 228 220
247 239 229 221 230 240 241 245 245 264 270 269 254 204 141 133 129 122 124 131 134 139 141 138 129 120 115 107 98 101 106 121 135 144 147 185 258 244 269 303 305 303 306 237
252 251 237 224 225 239 244 245 255 264 270 274 272 126 130 136 130 124 119 122 129 134 136 132 127 124 118 108 93 94 99 102 124 144 149 163 165 241 297 305 289 304 331 327
255 263 245 224 222 228 243 255 269 264 274 275 248 211 173 158 142 131 125 121 125 129 131 129 128 123 116 112 110 104 106 104 110 146 187 144 145 215 173 274 303 312 340 14
243 258 253 229 220 234 231 235 241 256 261 272 282 353 115 128 138 133 133 130 124 123 119 124 126 119 114 108 110 102 103 102 106 101 82 77 78 44 52 53 8 21 20 15
240 249 257 251 233 233 242 244 243 249 264 272 279 204 114 133 130 125 126 121 114 114 115 117 120 118 115 108 101 96 98 105 102 90 74 69 79 54 32 32 30 39 55 31
253 249 249 250 237 223 247 248 248 252 256 260 262 174 135 129 122 120 119 114 113 116 113 107 106 106 105 101 97 89 86 80 81 87 80 63 74 73 57 46 43 45 58 30
257 249 249 252 263 250 250 258 254 254 257 257 251 170 158 145 130 120 117 119 119 117 112 109 104 100 92 89 88 86 81 84 94 93 89 77 80 82 75 92 103 88 74 62
252 246 246 250 259 261 263 257 251 255 258 256 222 194 164 145 136 131 127 127 125 125 120 114 112 105 102 90 73 68 71 70 85 105 104 103 105 103 85 66 54 59 24 333
253 263 260 254 253 254 262 268 261 252 252 244 215 184 143 130 129 133 134 135 133 131 132 128 120 115 111 106 92 68 56 73 80 100 106 99 100 101 94 90 72 76 39 346
265 257 256 260 262 266 254 264 258 254 256 245 220 146 139 139 136 136 136 140 140 135 131 129 122 115 112 101 94 83 57 47 55 44 113 124 113 85 61 19 65 54 37 0
243 268 263 262 260 257 269 255 269 277 287 169 130 147 151 142 131 125 128 129 127 127 124 122 123 117 110 109 99 86 114 111 177 270 62 124 130 116 68 21 14 3 334 326
221 244 260 258 254 245 253 303 287 261 233 86 120 131 124 126 127 122 117 116 117 113 112 112 119 122 114 106 101 96 93 86 314 288 358 335 317 78 63 4 322 281 268 278
210 218 244 253 257 255 278 322 319 245 190 81 101 116 111 130 149 130 111 104 106 103 111 116 119 121 123 120 113 107 50 27 359 348 326 342 5 11 326 282 288 290 271 263
215 217 233 247 251 258 323 323 271 225 96 70 90 102 112 113 87 118 114 106 108 113 121 125 127 128 137 140 134 135 32 0 352 348 343 350 348 284 260 243 281 273 268 272
233 231 237 248 244 245 357 8 50 66 73 84 89 95 102 103 110 115 118 115 117 126 132 133 135 140 141 144 155 174 343 344 351 353 352 339 307 288 296 300 287 281 275 264
236 235 242 273 87 65 53 69 76 91 80 85 99 108 112 118 119 119 120 120 125 140 139 135 140 139 141 154 165 188 279 310 335 354 346 331 298 286 292 268 280 274 274 286
264 39 172 166 118 107 85 80 79 85 87 87 95 111 124 127 126 127 130 134 135 136 134 136 150 154 153 163 170 195 218 283 322 335 329 300 278 267 311 312 303 310 339 330
332 338 300 218 131 98 87 64 69 79 91 93 98 107 123 131 134 136 138 137 131 130 141 145 157 161 160 168 194 205 186 264 281 274 276 282 271 240 202 287 349 345 19 329
315 345 286 355 35 35 57 59 79 85 89 103 104 108 120 139 138 136 138 134 131 133 138 143 151 166 166 175 196 176 181 276 289 281 282 279 275 234 229 209 126 33 285 232